Wind_Speed
2 3 6 8 6 4 3 5 7 6 6 5 10 16 13 26 22 23 28 26 21 16 11 8 5 7 12 19 22 25 30 30 30 34 38 40 44 46 48 50 51 51 49 45
6 4 5 2 3 4 5 6 8 9 5 3 9 10 9 19 30 36 33 30 24 19 14 10 6 8 14 19 22 25 26 27 30 32 36 39 44 48 51 54 55 55 54 52
5 4 6 3 3 5 4 5 6 8 4 5 8 7 18 4 22 24 28 31 26 21 15 10 6 8 14 19 22 24 26 28 30 33 37 41 44 49 54 56 58 58 56 53
5 1 4 5 5 7 6 3 5 4 4 3 4 9 3 6 15 13 25 31 26 21 15 9 5 8 13 18 21 22 26 27 30 33 37 41 46 52 53 57 59 61 58 51
8 6 6 6 7 7 8 0 4 3 5 3 6 5 5 3 8 14 22 33 26 21 16 11 5 8 12 17 19 23 27 27 30 33 36 41 44 48 53 57 59 61 59 50
6 1 5 6 2 1 1 3 4 3 2 2 7 9 5 6 10 8 20 29 28 23 17 11 6 7 12 16 19 25 29 30 32 35 37 41 45 49 53 56 60 63 58 49
2 4 1 3 2 3 3 5 4 5 2 7 5 3 16 8 7 11 22 30 31 24 18 11 6 7 12 16 20 27 31 33 36 37 38 42 46 49 51 54 59 61 56 51
4 7 8 4 6 7 5 6 5 6 4 15 2 8 6 4 9 21 25 32 28 23 17 9 5 9 13 17 22 28 33 37 37 38 40 42 45 48 51 53 57 57 51 50
7 7 2 1 1 4 4 5 2 1 2 3 5 7 6 4 3 9 21 30 27 21 16 10 6 10 12 17 24 31 34 36 38 39 41 44 47 48 51 53 56 54 50 49
4 6 2 2 1 0 4 4 3 1 3 6 7 10 12 7 10 8 11 23 26 21 16 10 8 10 14 21 26 29 32 36 38 40 43 46 49 49 51 54 55 51 47 46
6 5 2 4 8 10 1 3 3 2 5 4 4 16 7 15 17 19 17 29 30 23 17 11 8 10 16 21 25 29 33 36 40 42 45 49 51 51 50 52 52 49 46 45
8 5 6 13 2 2 2 10 12 5 6 7 2 16 2 9 12 24 25 30 28 22 17 11 7 11 17 22 27 31 35 37 40 43 47 50 52 53 51 53 51 49 47 43
9 4 2 6 2 2 6 6 10 1 2 22 8 14 1 1 7 21 24 32 26 19 14 9 8 13 19 24 29 32 35 38 41 44 47 50 52 52 51 52 52 51 46 45
20 7 9 17 13 5 6 9 10 17 13 20 28 36 28 13 8 7 17 26 23 20 15 11 10 14 19 24 30 34 36 39 41 45 48 50 51 51 52 52 53 52 46 43
9 13 9 22 20 4 15 24 13 22 27 19 39 32 30 26 13 20 36 30 26 20 14 11 10 13 19 26 31 34 37 40 43 46 48 50 50 50 52 53 52 50 45 42
3 8 5 15 10 8 20 27 23 25 30 27 36 39 39 33 11 15 25 30 26 21 16 11 9 13 21 27 31 35 37 40 44 46 48 49 50 52 53 53 51 47 42 39
9 6 4 20 4 4 14 27 26 21 25 21 22 37 31 18 8 16 26 34 29 21 15 8 9 16 22 26 29 33 36 40 43 46 48 50 51 52 53 52 49 44 41 38
9 7 4 4 5 7 11 2 7 20 24 18 24 27 16 5 6 21 29 33 23 17 10 5 9 16 20 24 28 32 35 38 42 45 47 49 50 51 51 50 47 44 43 41
15 13 7 6 9 10 26 9 9 9 30 22 28 28 17 12 12 7 24 21 18 13 7 4 9 15 20 24 28 32 35 38 41 44 47 47 48 50 49 49 48 44 43 40
10 9 9 4 6 10 16 4 8 8 17 16 22 20 9 17 5 6 27 23 18 13 7 4 9 14 19 23 27 31 34 38 41 44 45 45 45 46 48 48 46 42 41 39
5 4 19 17 11 10 11 10 13 5 14 6 17 15 20 9 7 10 29 22 16 11 7 6 9 14 19 23 27 30 33 37 39 42 43 43 43 46 46 46 44 41 39 36
12 12 6 6 4 16 18 10 12 4 4 14 16 23 21 15 20 29 27 23 18 13 9 8 9 13 18 22 27 29 31 35 38 40 41 41 42 45 46 46 44 41 36 36
7 11 9 13 11 3 37 9 38 15 15 14 22 24 26 27 26 27 26 22 18 15 11 8 9 13 16 20 25 29 30 34 36 38 39 40 41 43 44 46 43 39 35 34
6 9 5 4 21 23 27 28 20 25 20 24 23 21 29 31 25 24 23 23 20 17 12 8 9 12 15 19 22 26 29 31 34 36 37 39 40 43 44 44 40 35 34 37
8 15 16 10 22 3 27 35 29 33 26 26 21 25 34 28 25 25 27 25 22 17 12 8 9 10 14 18 22 25 27 30 33 34 35 36 38 40 43 43 38 34 31 30
9 14 12 13 16 13 11 39 43 38 39 28 28 33 34 27 25 28 27 25 23 18 13 9 7 9 13 16 20 22 24 27 30 32 33 35 37 38 41 44 46 40 31 28
Wind_Direction
349 61 243 250 211 198 209 236 230 254 255 223 233 246 206 201 207 209 203 195 191 188 188 204 246 297 326 341 347 349 348 346 344 344 342 339 336 334 332 331 331 330 325 316
5 255 226 186 225 238 232 261 265 285 240 210 269 248 227 192 210 210 200 195 191 187 189 204 246 305 333 342 345 348 348 344 346 342 339 336 333 331 331 332 331 330 327 320
170 256 119 171 232 257 231 213 252 241 337 290 284 248 242 219 220 213 206 199 197 194 195 203 243 311 332 338 343 345 345 343 341 338 335 332 329 329 330 330 330 331 327 321
231 258 186 221 232 174 276 227 256 281 355 260 348 294 258 193 223 204 193 201 195 192 194 202 247 308 328 334 338 337 341 340 338 336 334 332 332 328 330 329 330 330 327 321
252 178 191 218 225 165 237 188 263 264 259 349 230 255 241 142 244 211 197 200 192 194 198 201 249 311 324 332 335 336 339 338 336 334 333 330 327 325 327 328 329 331 325 321
248 226 190 210 139 177 32 333 299 47 99 256 233 196 221 192 218 196 203 196 192 189 191 205 250 309 328 332 332 334 338 337 334 334 331 328 327 326 326 329 329 328 323 320
334 222 67 162 128 17 81 56 312 334 344 237 180 232 258 234 225 196 195 187 188 188 192 207 252 315 333 333 334 336 336 335 336 331 330 327 327 325 325 328 327 324 321 316
212 302 176 180 198 186 177 177 168 262 251 293 350 245 252 290 302 242 191 180 182 187 195 217 275 322 329 331 335 334 337 336 332 329 327 325 324 325 325 326 323 320 316 315
180 265 120 241 174 159 179 187 152 192 126 7 238 277 275 81 48 112 152 173 185 192 202 222 280 317 322 330 334 336 333 331 330 328 326 325 325 326 325 324 322 320 315 314
215 288 209 174 163 285 167 154 69 9 288 274 263 274 248 199 207 186 183 191 194 199 209 225 274 303 321 332 332 332 331 330 330 328 328 328 326 326 325 323 322 319 315 307
145 179 185 120 208 183 158 214 199 200 162 228 295 283 207 192 203 192 201 197 199 202 211 229 269 308 330 327 330 333 333 332 331 331 329 328 326 327 325 324 324 320 314 307
200 169 202 211 237 279 244 208 186 191 223 235 218 260 169 206 197 195 203 198 200 205 207 231 273 319 319 324 332 335 334 334 333 331 329 328 327 326 325 327 325 319 315 309
179 213 315 312 359 331 224 211 218 358 299 248 239 266 25 181 155 198 188 196 199 203 218 250 269 308 319 328 333 334 335 334 332 330 329 327 327 326 328 329 325 322 317 312
158 187 181 240 238 137 218 200 203 213 239 255 243 263 261 253 203 202 196 201 201 207 218 246 275 310 322 329 333 336 334 334 331 330 329 327 328 330 330 330 328 322 319 315
172 236 194 247 260 194 263 260 206 218 238 237 261 261 265 266 235 204 208 202 199 201 219 238 277 309 323 332 334 332 333 332 330 330 329 330 331 332 333 331 329 325 323 318
193 246 154 258 244 223 259 264 254 245 251 249 254 267 266 277 241 178 186 190 190 201 217 230 277 318 333 335 332 331 331 331 330 330 332 333 334 335 333 333 330 326 327 321
168 184 139 256 119 359 273 252 239 247 243 233 245 246 263 261 194 178 181 188 191 202 204 233 310 330 333 330 329 329 331 331 330 332 334 336 338 336 335 335 332 331 331 323
167 190 154 252 103 233 258 126 186 219 247 219 246 255 242 195 199 210 201 184 189 192 202 265 315 329 326 327 328 329 331 331 333 334 337 339 338 337 336 337 334 338 333 325
216 208 221 220 213 306 291 230 178 177 273 202 228 244 247 155 133 172 179 187 185 187 202 267 321 324 324 327 327 329 332 334 335 337 339 341 341 339 339 341 340 340 329 326
215 233 209 154 206 225 259 136 145 137 274 195 209 231 146 142 180 216 182 180 182 187 196 268 310 321 322 324 328 331 333 334 338 339 341 344 342 342 344 346 342 340 332 325
156 191 215 227 242 270 218 160 149 150 261 173 188 170 158 189 202 187 174 178 186 189 215 271 304 318 321 324 328 334 335 336 339 340 343 344 346 348 350 346 347 341 333 328
167 168 193 204 212 260 141 129 188 205 152 171 177 179 176 170 152 156 170 178 185 199 217 256 294 314 321 326 330 336 338 338 339 343 344 347 352 355 353 351 351 343 340 333
192 187 178 192 211 197 179 192 204 177 168 180 182 184 186 169 166 170 176 183 194 205 225 253 295 313 321 330 333 337 340 339 342 345 347 352 357 359 360 358 353 343 343 336
241 192 221 127 244 229 206 219 205 196 187 187 187 189 188 180 181 183 186 191 198 208 222 251 288 310 327 333 339 340 340 343 345 347 351 356 359 2 4 5 0 346 343 343
181 157 207 242 266 8 230 219 216 208 201 195 195 203 190 187 191 196 193 197 201 208 219 241 281 309 329 335 342 341 345 347 349 352 356 359 3 5 7 8 8 353 348 345
193 195 191 225 226 205 242 212 211 209 205 203 202 194 192 198 200 196 197 200 203 206 218 239 275 310 329 338 342 345 350 352 352 355 359 4 5 8 10 10 11 20 4 358
Height
1524 1529 1532 1528 1527 1525 1527 1530 1531 1518 1511 1516 1511 1505 1505 1504 1508 1508 1507 1508 1509 1509 1511 1511 1509 1507 1505 1501 1498 1493 1488 1487 1484 1480 1477 1473 1470 1466 1462 1458 1454 1449 1443 1439
1530 1531 1520 1522 1524 1526 1528 1530 1528 1517 1510 1512 1506 1503 1495 1497 1494 1493 1496 1500 1503 1505 1505 1506 1505 1502 1500 1497 1494 1490 1488 1486 1483 1479 1475 1471 1465 1460 1453 1447 1444 1440 1434 1427
1528 1520 1519 1522 1525 1527 1526 1528 1524 1520 1515 1512 1506 1499 1488 1491 1491 1490 1493 1496 1497 1498 1501 1501 1501 1499 1497 1495 1492 1489 1487 1484 1480 1475 1471 1465 1460 1454 1447 1441 1434 1428 1423 1417
1523 1518 1520 1523 1524 1525 1527 1516 1517 1518 1521 1525 1511 1499 1486 1489 1485 1486 1488 1490 1490 1492 1494 1495 1495 1493 1492 1491 1489 1486 1483 1479 1475 1471 1465 1459 1452 1445 1441 1434 1425 1418 1413 1406
1518 1518 1522 1523 1519 1518 1519 1515 1517 1517 1523 1522 1515 1522 1480 1485 1482 1478 1478 1480 1485 1488 1489 1488 1489 1489 1487 1486 1484 1481 1478 1474 1469 1464 1458 1452 1448 1442 1433 1427 1416 1409 1401 1396
1515 1514 1514 1513 1515 1515 1517 1518 1519 1522 1529 1539 1504 1509 1481 1486 1465 1465 1471 1474 1477 1481 1483 1484 1483 1483 1483 1481 1478 1475 1471 1466 1462 1456 1452 1448 1441 1434 1426 1419 1408 1399 1391 1384
1516 1512 1510 1511 1514 1516 1518 1526 1535 1535 1544 1513 1506 1509 1455 1458 1454 1453 1456 1465 1471 1475 1477 1479 1479 1477 1476 1475 1472 1469 1464 1459 1452 1449 1445 1440 1434 1427 1418 1410 1402 1393 1382 1374
1522 1518 1510 1507 1508 1510 1519 1520 1536 1539 1532 1485 1515 1491 1456 1455 1452 1447 1452 1459 1466 1468 1471 1473 1473 1471 1470 1468 1466 1463 1456 1449 1446 1441 1437 1432 1424 1416 1408 1400 1393 1384 1375 1365
1521 1517 1505 1506 1506 1507 1514 1519 1515 1531 1573 1553 1493 1470 1452 1456 1456 1453 1454 1458 1461 1464 1466 1467 1467 1466 1466 1464 1459 1452 1447 1444 1441 1435 1429 1423 1416 1409 1400 1392 1384 1373 1365 1356
1497 1507 1505 1507 1507 1507 1508 1509 1522 1531 1533 1538 1477 1462 1447 1457 1455 1455 1455 1455 1457 1459 1462 1462 1462 1463 1461 1458 1453 1449 1444 1439 1433 1426 1420 1413 1406 1398 1391 1383 1374 1364 1355 1347
1496 1499 1509 1510 1509 1503 1515 1511 1511 1514 1515 1517 1505 1422 1430 1434 1435 1443 1443 1444 1449 1453 1455 1457 1457 1456 1453 1451 1448 1442 1436 1431 1425 1418 1411 1403 1395 1387 1381 1372 1363 1353 1344 1337
1487 1497 1504 1498 1492 1493 1490 1490 1492 1501 1508 1494 1496 1426 1424 1426 1427 1434 1436 1438 1443 1446 1450 1452 1450 1448 1448 1445 1440 1434 1428 1423 1416 1409 1402 1394 1386 1378 1370 1360 1352 1343 1333 1325
1480 1492 1508 1488 1494 1493 1491 1485 1479 1482 1486 1466 1487 1420 1421 1422 1422 1422 1426 1431 1436 1440 1442 1443 1444 1442 1440 1436 1430 1426 1420 1415 1409 1403 1394 1386 1376 1367 1358 1348 1340 1331 1321 1314
1463 1475 1471 1459 1452 1469 1480 1477 1477 1475 1468 1452 1441 1422 1406 1419 1425 1425 1425 1428 1431 1433 1436 1437 1437 1436 1433 1429 1423 1418 1414 1409 1403 1395 1387 1378 1368 1358 1348 1338 1328 1320 1311 1303
1462 1459 1466 1447 1445 1461 1455 1442 1463 1460 1442 1450 1409 1414 1405 1399 1411 1414 1414 1420 1425 1428 1431 1432 1432 1429 1426 1421 1416 1412 1408 1403 1396 1388 1379 1369 1359 1349 1337 1328 1318 1308 1299 1292
1461 1454 1459 1453 1451 1459 1454 1430 1437 1438 1429 1430 1414 1401 1380 1395 1400 1402 1407 1412 1418 1421 1423 1426 1426 1421 1416 1413 1410 1407 1402 1396 1389 1380 1370 1361 1350 1339 1329 1318 1307 1298 1288 1282
1459 1456 1465 1441 1454 1465 1447 1410 1419 1413 1407 1411 1418 1380 1377 1389 1393 1396 1401 1404 1408 1414 1418 1420 1417 1413 1409 1406 1404 1401 1396 1389 1381 1372 1363 1353 1341 1330 1320 1309 1299 1289 1279 1273
1444 1448 1454 1446 1462 1450 1381 1396 1398 1401 1384 1396 1389 1377 1380 1382 1383 1385 1389 1395 1404 1408 1410 1410 1410 1407 1406 1403 1400 1396 1391 1383 1374 1365 1356 1345 1335 1323 1312 1301 1292 1279 1271 1265
1420 1425 1437 1436 1435 1413 1374 1380 1394 1398 1360 1374 1369 1362 1369 1379 1384 1387 1387 1392 1396 1401 1403 1404 1402 1401 1401 1397 1395 1390 1384 1376 1368 1358 1349 1339 1328 1316 1305 1293 1282 1272 1265 1257
1417 1418 1421 1438 1428 1413 1347 1381 1383 1387 1372 1346 1352 1356 1368 1375 1386 1377 1381 1385 1390 1394 1396 1396 1397 1396 1395 1393 1390 1385 1379 1372 1362 1352 1344 1333 1323 1312 1299 1287 1277 1267 1260 1251
1417 1417 1406 1402 1399 1397 1362 1373 1380 1394 1334 1336 1341 1347 1357 1363 1362 1366 1377 1384 1389 1391 1393 1393 1392 1392 1392 1388 1384 1379 1373 1367 1358 1348 1339 1329 1319 1306 1295 1285 1273 1263 1254 1246
1389 1401 1407 1403 1410 1383 1351 1373 1365 1334 1335 1337 1342 1344 1352 1358 1361 1363 1370 1375 1381 1384 1385 1388 1389 1387 1386 1383 1377 1372 1367 1361 1353 1344 1335 1324 1314 1302 1291 1280 1269 1260 1251 1243
1362 1354 1369 1369 1350 1333 1329 1323 1325 1329 1333 1339 1342 1343 1347 1353 1358 1361 1364 1370 1375 1379 1382 1383 1384 1382 1382 1378 1374 1369 1363 1356 1348 1340 1331 1320 1310 1300 1290 1278 1266 1257 1250 1242
1347 1345 1348 1351 1311 1316 1319 1320 1321 1321 1324 1332 1337 1340 1344 1347 1353 1356 1360 1365 1368 1373 1376 1378 1376 1378 1376 1375 1370 1366 1361 1352 1345 1336 1327 1317 1307 1298 1288 1280 1268 1258 1250 1241
1316 1326 1324 1322 1301 1315 1310 1312 1314 1318 1321 1326 1330 1335 1338 1343 1347 1349 1353 1359 1362 1366 1371 1368 1372 1372 1369 1370 1367 1363 1357 1349 1342 1334 1326 1316 1307 1298 1287 1279 1270 1260 1254 1246
1292 1283 1297 1281 1271 1281 1284 1293 1300 1305 1308 1314 1323 1329 1334 1339 1341 1345 1349 1353 1356 1361 1364 1365 1366 1367 1365 1364 1364 1360 1354 1347 1340 1333 1324 1315 1307 1298 1289 1278 1268 1263 1253 1243